E25RIV-1 Weather Reports


time (UTC)temp
C
wind
direction
speed
KPH
gust
KPH
rain 1hr
cm
rain 24hr
cm
rain mn
cm
humidity
%
barometer
mb
20260509162313 28 0 0.0 0.0 0.00 0.00 0.00 99 1005.0
20260509161248 27 0 0.0 0.0 0.00 0.00 0.00 99 1005.0
20260509160225 28 0 0.0 0.0 0.00 0.00 0.00 99 1005.0
20260509155200 28 0 0.0 0.0 0.00 0.00 0.00 99 1005.0
20260509154136 28 0 0.0 0.0 0.00 0.00 0.00 99 1005.0
20260509153113 28 0 0.0 0.0 0.00 0.00 0.00 99 1005.0
20260509152048 28 0 0.0 0.0 0.00 0.00 0.00 99 1005.0
20260509151024 28 0 0.0 0.0 0.00 0.00 0.00 99 1005.0
20260509150000 28 0 0.0 0.0 0.00 0.00 0.00 99 1005.0
20260509144936 28 0 0.0 0.0 0.00 0.00 0.00 99 1004.0
20260509143913 28 0 0.0 0.0 0.00 0.00 0.00 99 1004.0
20260509142848 28 0 0.0 0.0 0.00 0.00 0.00 99 1004.0
20260509141825 28 0 0.0 0.0 0.00 0.00 0.00 99 1004.0
20260509140801 28 0 0.0 0.0 0.00 0.00 0.00 99 1004.0
20260509135737 28 0 0.0 0.0 0.00 0.00 0.00 99 1004.0
20260509134713 28 0 0.0 0.0 0.00 0.00 0.00 99 1004.0
20260509133649 29 0 0.0 0.0 0.00 0.00 0.00 99 1003.0
20260509132625 29 0 0.0 0.0 0.00 0.00 0.00 99 1003.0
20260509131601 30 0 0.0 0.0 0.00 0.00 0.00 99 1003.0
20260509130537 30 0 0.0 0.0 0.00 0.00 0.00 99 1003.0
20260509125513 30 0 0.0 0.0 0.00 0.00 0.00 99 1002.0
20260509124451 30 0 0.0 0.0 0.00 0.00 0.00 99 1002.0
20260509123425 30 0 0.0 0.0 0.00 0.00 0.00 99 1003.0
20260509122402 30 0 0.0 0.0 0.00 0.00 0.00 99 1002.0
20260509121354 30 0 0.0 0.0 0.00 0.00 0.00 99 1002.0
20260509120313 30 0 0.0 0.0 0.00 0.00 0.00 99 1002.0
20260509115249 30 0 0.0 0.0 0.00 0.00 0.00 99 1002.0
20260509114225 31 0 0.0 0.0 0.00 0.00 0.00 99 1001.0
20260509113201 31 0 0.0 0.0 0.00 0.00 0.00 99 1001.0
20260509112137 31 0 0.0 0.0 0.00 0.00 0.00 99 1001.0
20260509111113 32 0 0.0 0.0 0.00 0.00 0.00 99 1001.0
20260509110049 32 0 0.0 0.0 0.00 0.00 0.00 99 1001.0
20260509105025 32 0 0.0 0.0 0.00 0.00 0.00 99 1001.0
20260509104001 32 0 0.0 0.0 0.00 0.00 0.00 98 1000.0
20260509102937 32 0 0.0 0.0 0.00 0.00 0.00 96 999.0
20260509101919 32 0 0.0 0.0 0.00 0.00 0.00 99 1000.0
20260509100849 31 0 0.0 0.0 0.00 0.00 0.00 99 1000.0
20260509095825 30 0 0.0 0.0 0.00 0.00 0.00 99 1000.0
20260509094801 30 0 0.0 0.0 0.00 0.00 0.00 99 1000.0
20260509093737 29 0 0.0 0.0 0.00 0.00 0.00 99 1001.0
20260509092713 28 0 0.0 0.0 0.00 0.00 0.00 99 1001.0
20260509091649 29 0 0.0 0.0 0.00 0.00 0.00 83 1004.0
20260509090625 32 0 0.0 0.0 0.00 0.00 0.00 69 1002.0
20260509085601 34 0 0.0 0.0 0.00 0.00 0.00 65 1000.0
20260509084539 35 0 0.0 0.0 0.00 0.00 0.00 61 999.0
20260509083514 35 0 0.0 0.0 0.00 0.00 0.00 58 997.0
20260509082449 37 0 0.0 0.0 0.00 0.00 0.00 49 991.0
20260509081425 37 0 0.0 0.0 0.00 0.00 0.00 50 992.0
20260509080401 36 0 0.0 0.0 0.00 0.00 0.00 52 993.0
20260509075337 37 0 0.0 0.0 0.00 0.00 0.00 49 991.0
20260509074313 37 0 0.0 0.0 0.00 0.00 0.00 51 992.0
20260509073249 37 0 0.0 0.0 0.00 0.00 0.00 53 993.0
20260509072225 37 0 0.0 0.0 0.00 0.00 0.00 54 994.0
20260509071201 37 0 0.0 0.0 0.00 0.00 0.00 55 995.0
20260509070137 36 0 0.0 0.0 0.00 0.00 0.00 56 996.0
20260509065114 36 0 0.0 0.0 0.00 0.00 0.00 56 995.0
20260509064049 36 0 0.0 0.0 0.00 0.00 0.00 56 996.0
20260509063026 36 0 0.0 0.0 0.00 0.00 0.00 57 997.0
20260509062001 36 0 0.0 0.0 0.00 0.00 0.00 58 998.0
20260509060937 36 0 0.0 0.0 0.00 0.00 0.00 56 996.0
20260509055913 36 0 0.0 0.0 0.00 0.00 0.00 62 999.0
20260509054849 35 0 0.0 0.0 0.00 0.00 0.00 63 1000.0
20260509053825 35 0 0.0 0.0 0.00 0.00 0.00 64 1001.0
20260509052801 35 0 0.0 0.0 0.00 0.00 0.00 62 999.0
20260509051737 35 0 0.0 0.0 0.00 0.00 0.00 65 1002.0
20260509050713 34 0 0.0 0.0 0.00 0.00 0.00 64 1001.0
20260509045649 35 0 0.0 0.0 0.00 0.00 0.00 64 1000.0
20260509044625 34 0 0.0 0.0 0.00 0.00 0.00 67 1001.0
20260509043601 34 0 0.0 0.0 0.00 0.00 0.00 68 1002.0
20260509042537 34 0 0.0 0.0 0.00 0.00 0.00 71 1003.0
20260509041513 33 0 0.0 0.0 0.00 0.00 0.00 71 1003.0
20260509040449 33 0 0.0 0.0 0.00 0.00 0.00 69 1003.0
20260509035425 33 0 0.0 0.0 0.00 0.00 0.00 68 1002.0
20260509034401 33 0 0.0 0.0 0.00 0.00 0.00 73 1003.0
20260509033337 33 0 0.0 0.0 0.00 0.00 0.00 73 1003.0
20260509032313 32 0 0.0 0.0 0.00 0.00 0.00 79 1004.0
20260509031249 32 0 0.0 0.0 0.00 0.00 0.00 85 1005.0
20260509030226 31 0 0.0 0.0 0.00 0.00 0.00 87 1005.0
20260509025202 32 0 0.0 0.0 0.00 0.00 0.00 90 1006.0
20260509024138 32 0 0.0 0.0 0.00 0.00 0.00 89 1005.0
20260509023114 31 0 0.0 0.0 0.00 0.00 0.00 90 1006.0
20260509022050 31 0 0.0 0.0 0.00 0.00 0.00 89 1005.0
20260509021026 31 0 0.0 0.0 0.00 0.00 0.00 90 1006.0
20260509020002 31 0 0.0 0.0 0.00 0.00 0.00 92 1005.0
20260509014938 31 0 0.0 0.0 0.00 0.00 0.00 99 1006.0
20260509013914 30 0 0.0 0.0 0.00 0.00 0.00 99 1006.0
20260509012850 30 0 0.0 0.0 0.00 0.00 0.00 99 1006.0
20260509011826 30 0 0.0 0.0 0.00 0.00 0.00 99 1006.0
20260509010802 28 0 0.0 0.0 0.00 0.00 0.00 99 1006.0
20260509005737 28 0 0.0 0.0 0.00 0.00 0.00 99 1006.0
20260509004714 28 0 0.0 0.0 0.00 0.00 0.00 99 1006.0
20260509003650 28 0 0.0 0.0 0.00 0.00 0.00 99 1006.0
20260509002626 27 0 0.0 0.0 0.00 0.00 0.00 99 1006.0
20260509001602 27 0 0.0 0.0 0.00 0.00 0.00 99 1006.0
20260509000537 27 0 0.0 0.0 0.00 0.00 0.00 99 1006.0
20260508235514 27 0 0.0 0.0 0.00 0.00 0.00 99 1006.0
20260508234450 26 0 0.0 0.0 0.00 0.00 0.00 99 1006.0
20260508233425 26 0 0.0 0.0 0.00 0.00 0.00 99 1006.0
20260508232402 26 0 0.0 0.0 0.00 0.00 0.00 99 1005.0
20260508231338 26 0 0.0 0.0 0.00 0.00 0.00 99 1005.0
20260508230314 26 0 0.0 0.0 0.00 0.00 0.00 99 1005.0
20260508225249 26 0 0.0 0.0 0.00 0.00 0.00 99 1005.0
20260508224225 26 0 0.0 0.0 0.00 0.00 0.00 99 1005.0
20260508223202 26 0 0.0 0.0 0.00 0.00 0.00 99 1005.0
20260508222137 26 0 0.0 0.0 0.00 0.00 0.00 99 1005.0
20260508221114 26 0 0.0 0.0 0.00 0.00 0.00 99 1005.0
20260508220049 26 0 0.0 0.0 0.00 0.00 0.00 99 1004.0
20260508215025 26 0 0.0 0.0 0.00 0.00 0.00 99 1004.0
20260508214001 26 0 0.0 0.0 0.00 0.00 0.00 99 1004.0
20260508212937 26 0 0.0 0.0 0.00 0.00 0.00 99 1004.0
20260508211914 26 0 0.0 0.0 0.00 0.00 0.00 99 1004.0
20260508210849 26 0 0.0 0.0 0.00 0.00 0.00 99 1004.0
20260508205825 26 0 0.0 0.0 0.00 0.00 0.00 99 1004.0
20260508204801 26 0 0.0 0.0 0.00 0.00 0.00 99 1004.0
20260508203737 26 0 0.0 0.0 0.00 0.00 0.00 99 1003.0
20260508202714 26 0 0.0 0.0 0.00 0.00 0.00 99 1004.0
20260508201649 26 0 0.0 0.0 0.00 0.00 0.00 99 1004.0
20260508200625 26 0 0.0 0.0 0.00 0.00 0.00 99 1004.0
20260508195602 26 0 0.0 0.0 0.00 0.00 0.00 99 1004.0
20260508194537 26 0 0.0 0.0 0.00 0.00 0.00 99 1004.0
20260508193514 26 0 0.0 0.0 0.00 0.00 0.00 99 1004.0
20260508192449 26 0 0.0 0.0 0.00 0.00 0.00 99 1004.0
20260508191426 26 0 0.0 0.0 0.00 0.00 0.00 99 1004.0
20260508190401 26 0 0.0 0.0 0.00 0.00 0.00 99 1004.0
20260508185337 26 0 0.0 0.0 0.00 0.00 0.00 99 1004.0
20260508184314 26 0 0.0 0.0 0.00 0.00 0.00 99 1004.0
20260508183249 26 0 0.0 0.0 0.00 0.00 0.00 99 1004.0
20260508182225 26 0 0.0 0.0 0.00 0.00 0.00 99 1004.0
20260508181201 26 0 0.0 0.0 0.00 0.00 0.00 99 1004.0
20260508180137 26 0 0.0 0.0 0.00 0.00 0.00 99 1005.0
20260508175127 26 0 0.0 0.0 0.00 0.00 0.00 99 1005.0
20260508174049 26 0 0.0 0.0 0.00 0.00 0.00 99 1005.0
20260508173025 26 0 0.0 0.0 0.00 0.00 0.00 99 1005.0
20260508172001 26 0 0.0 0.0 0.00 0.00 0.00 99 1005.0
20260508170937 26 0 0.0 0.0 0.00 0.00 0.00 99 1005.0
20260508165913 26 0 0.0 0.0 0.00 0.00 0.00 99 1005.0
20260508164850 26 0 0.0 0.0 0.00 0.00 0.00 99 1005.0
20260508163826 26 0 0.0 0.0 0.00 0.00 0.00 99 1005.0
20260508162802 26 0 0.0 0.0 0.00 0.00 0.00 99 1005.0